Regional Weather Roundup
Issued by NWS

Home | Current Version | Previous Version | Graphics & Text | Print | Product List | Glossary On
Versions: 1 2 3 4 5 6 7 8 9 10 11 12 13 14 15 16 17 18 19 20 21 22 23 24 25 26 27 28 29 30 31 32 33 34 35 36 37 38 39 40 41 42 43 44 45 46 47 48 49 50
465
ASUS45 KTFX 280910
RWRMT
MONTANA REGIONAL WEATHER ROUNDUP
NATIONAL WEATHER SERVICE GREAT FALLS MT
300 AM MDT TUE MAR 28 2017

NOTE: "FAIR" INDICATES FEW OR NO CLOUDS BELOW 12000 FEET WITH NO
SIGNIFICANT WEATHER AND/OR OBSTRUCTIONS TO VISIBILITY.

MTZ001>007-043-281000-
WEST OF THE DIVIDE

CITY           SKY/WX    TMP DP  RH WIND       PRES   REMARKS
KALISPELL      CLOUDY    35  32  88 N5        30.14R
MISSOULA       MOCLDY    34  32  92 NE5       30.19S
BUTTE          CLOUDY    31  24  75 W5        30.13R
MULLAN PASS    CLOUDY    27  27 100 VRB3      30.12S FOG
ANACONDA         N/A     34  25  69 W10       30.14S WCI  26
DEER LODGE       N/A     34  28  80 CALM      30.18R
EUREKA           N/A     43  30  61 SE7       30.12S
HAMILTON         N/A     34  27  75 SE8       30.19R WCI  27
PLAINS           N/A     36  30  79 CALM      30.18R
RONAN            N/A     38  33  82 CALM      30.19S
$$

MTZ008-052>055-281000-
SOUTHWEST MONTANA

CITY           SKY/WX    TMP DP  RH WIND       PRES   REMARKS
BOZEMAN        MOCLDY    37  32  82 W7        30.10R WCI  32
DILLON         MOCLDY    32  25  75 SW3       30.11R
W YELLOWSTONE  CLOUDY    28  27  93 CALM      30.06F
ENNIS          PTCLDY    28  27  93 NE5       30.14R
THREE FORKS      N/A     37  37 100 CALM      30.10R
TWIN BRIDGES     N/A     32  20  61 W2        30.09R
$$

MTZ009-010-012-014-046-048-049-054-281000-
EAST SLOPES AND CENTRAL MONTANA

CITY           SKY/WX    TMP DP  RH WIND       PRES   REMARKS
CUT BANK       CLEAR     33  24  69 W12       30.01R WCI  24
GREAT FALLS    CLOUDY    33  26  75 SW14      30.05R WCI  23
MALMSTROM AFB  CLOUDY    33  28  83 SW10      30.06R WCI  24
HELENA         CLEAR     38  26  62 W3        30.12R
AUGUSTA          N/A     35  21  56 W13       30.04R WCI  26
BOWMANS CRNR     N/A     30  24  78 S12       30.05R WCI  20
CHOTEAU          N/A     39  19  45 NW10      30.05R
CONRAD           N/A     29  23  78 MISG      30.04S
FAIRFIELD        N/A     32  20  61 SW6       30.04R WCI  27
POWER            N/A     27  22  80 W8        30.04R WCI  19
RAYNESFORD     MOCLDY    38  32  79 NW3       30.06R
$$

MTZ011-013-016-021-045-047-050-051-281000-
NORTH CENTRAL MONTANA

CITY           SKY/WX    TMP DP  RH WIND       PRES   REMARKS
HAVRE          CLOUDY    41  32  70 SW14      30.01R
LEWISTOWN      LGT RAIN  39  35  86 W8        30.05R
N BAR RANCH    CLOUDY    41  32  70 NW13      30.05R
CHINOOK          N/A     34  34 100 CALM      30.01F
DENTON         MOCLDY    41  34  74 W10       30.00R
FORT BENTON      N/A     39  28  65 MISG      30.07R
GEYSER         MOCLDY    38  32  79 W12       30.03S WCI  30
GRASS RANGE    MOCLDY    42  34  74 W20       30.00R
JUDITH GAP     LGT RAIN  37  34  90 NW15      30.04R WCI  27
STANFORD       MOCLDY    36  33  91 W3        30.04S
WINIFRED         N/A     40  34  77 W7        30.03R
$$

MTZ017>020-022>027-061-062-281000-
NORTHEAST MONTANA

CITY           SKY/WX    TMP DP  RH WIND       PRES   REMARKS
GLASGOW        CLOUDY    35  32  88 E7        29.98R WCI  29
JORDAN           N/A     33  30  88 NW8       29.96R WCI  26
SIDNEY         LGT RAIN  39  36  89 NE9       29.98S
WOLF POINT     PTCLDY    36  33  89 E7        30.00R WCI  30
MALTA          CLEAR     39  34  81 N10       30.00S
PLENTYWOOD       N/A     36  36 100 NE8       30.02R WCI  29
POPLAR           N/A     34  34 100 NE13      30.00S WCI  25
SCOBEY           N/A     38  29  70 E10       29.98R WCI  31
$$

MTZ028>42-056>058-281000-
SOUTHCENTRAL AND SOUTHEAST MONTANA

CITY           SKY/WX    TMP DP  RH WIND       PRES   REMARKS
BAKER          CLEAR     42  34  73 S13       29.96S
BILLINGS       RAIN      42  39  89 NW12      30.02S
LIVINGSTON     CLOUDY    38  30  73 W15       30.07R WCI  29
MILES CITY     CLOUDY    40  35  83 N6        29.95R
BIG TIMBER     CLOUDY    39  32  75 W20       30.07R WCI  30
EKALAKA          N/A     41  31  68 SE8       29.94R
FORSYTH          N/A     43  37  81 SW3       29.95R
HARLOWTON      LGT RAIN  39  33  79 NW15      30.04R WCI  31
LAUREL           N/A     40  25  55 NW10      30.02F
$$

REGIONAL REPORTS...DAKOTAS

CITY           SKY/WX    TMP DP  RH WIND       PRES   REMARKS
WILLISTON      CLOUDY    38  35  89 NE7       30.02R
MINOT          CLOUDY    35  34  96 NE10      30.07S WCI  27
DICKINSON      CLEAR     33  28  81 NE5       29.98R
BEACH            N/A    N/A N/A N/A MISG        N/A
TIOGA          CLOUDY    34  34 100 E14       30.03S WCI  24
WATFORD CITY   CLOUDY    36  36 100 E8        30.00R WCI  29
BISMARCK       CLEAR     34  31  88 CALM      30.03S
GRAND FORKS    CLOUDY    34  33  96 N8        30.10S WCI  27
FARGO          FOG       34  34 100 N6        30.09R VSB 1/4 WCI  29
BUFFALO SD       N/A     39  33  79 S6        29.91S
RAPID CITY     CLOUDY    40  33  76 N9        29.94S
$$

REGIONAL REPORTS...WYOMING/IDAHO/WASHINGTON

CITY           SKY/WX    TMP DP  RH WIND       PRES   REMARKS
GILLETTE       CLOUDY    40  36  86 N5        29.93S
SHERIDAN       CLOUDY    44  37  76 NW13      29.96R
BUFFALO WY     LGT RAIN  45  35  68 NW12      29.95S
CODY           LGT RAIN  37  34  89 N8        30.02R WCI  31
YELLOWSTONE LA   N/A     27  24  89 CALM      30.04S
IDAHO FALLS    MOCLDY    36  35  96 S6        30.09R WCI  31
SALMON         CLOUDY    32  23  69 CALM      30.17S
BOISE          CLEAR     38  32  79 NW7       30.21R
SPOKANE        PTCLDY    37  33  85 S10       30.17R WCI  30
$$

REGIONAL REPORTS...ALBERTA

CITY           SKY/WX    TMP DP  RH WIND       PRES   REMARKS
EDMONTON       CLEAR     28  27  93 E5        29.91S
CALGARY        PTCLDY    36  23  60 S3        29.92R
LETHBRIDGE     CLEAR     39  25  56 W17G24    29.97R WCI  30
MEDICINE HAT   CLEAR     37  28  70 SW12      29.93R WCI  30
WATERTON GATE    N/A     37  23  56 SW17G29     N/A  WCI  28
MILK RIVER       N/A     32  25  74 W9          N/A  WCI  24
$$

REGIONAL REPORTS...SASKATCHEWAN

CITY           SKY/WX    TMP DP  RH WIND       PRES   REMARKS
SWIFT CURRENT  CLOUDY    36  32  87 S7        29.98F WCI  30
REGINA         MOCLDY    34  30  86 E13       30.07S WCI  25
SASKATOON      CLOUDY    34  32  93 SE9       30.07S WCI  26
CYPRESS HILLS    N/A     34  32  93 S6          N/A  WCI  29
VAL MARIE        N/A     30  28  93 N2          N/A
ROCKGLEN         N/A     36  34  93 E7          N/A  WCI  30
$$




USA.gov is the U.S. government's official web portal to all federal, state and local government web resources and services.